timestamp,surface_pressure_avg,surface_temp_avg,battery_voltage,lat,long
2021-10-07 00:09:01+00:00,371.1146,14.0,12.73,47.84626,-54.09684
2021-10-07 00:19:01+00:00,370.3997,14.0,12.73,47.84626,-54.09684
2021-10-07 00:29:01+00:00,368.1196,14.0,12.73,47.84626,-54.09684
2021-10-07 00:39:01+00:00,365.4796,14.0,12.73,47.84626,-54.09684
2021-10-07 00:49:01+00:00,361.7645,14.0,12.73,47.84626,-54.09684
2021-10-07 00:59:01+00:00,360.8929,14.0,12.73,47.84626,-54.09684
2021-10-07 01:09:01+00:00,358.3846,14.0,12.73,47.84626,-54.09684
2021-10-07 01:19:01+00:00,349.9096,14.0,12.65,47.84626,-54.09684
2021-10-07 01:29:01+00:00,344.1929,13.99,12.65,47.84626,-54.09684
2021-10-07 01:39:01+00:00,342.9530000000001,13.99,12.65,47.84626,-54.09684
2021-10-07 01:49:01+00:00,335.6980000000001,13.98,12.65,47.84626,-54.09684
2021-10-07 01:59:01+00:00,321.7896,13.94,12.65,47.84626,-54.09684
2021-10-07 02:09:01+00:00,314.7397,13.93,12.65,47.84626,-54.09684
2021-10-07 02:19:00+00:00,308.5731,13.91,12.73,47.84626,-54.09684
2021-10-07 02:29:00+00:00,295.14799999999997,13.9,12.73,47.84626,-54.09684
2021-10-07 02:39:00+00:00,282.3347,13.9,12.73,47.84626,-54.09684
2021-10-07 02:49:00+00:00,275.4197,13.9,12.73,47.84626,-54.09684
2021-10-07 02:59:00+00:00,266.6081,13.9,12.73,47.84626,-54.09684
2021-10-07 03:09:00+00:00,254.4281,13.9,12.73,47.84626,-54.09684
2021-10-07 03:19:00+00:00,244.1264,13.9,12.65,47.84626,-54.09684
2021-10-07 03:29:00+00:00,235.1881,13.89,12.65,47.84626,-54.09684
2021-10-07 03:39:00+00:00,224.1948,13.87,12.65,47.84626,-54.09684
2021-10-07 03:49:00+00:00,213.8347,13.83,12.65,47.84626,-54.09684
2021-10-07 03:59:00+00:00,207.4314,13.82,12.65,47.84626,-54.09684
2021-10-07 04:09:00+00:00,199.6964,13.83,12.65,47.84626,-54.09684
2021-10-07 04:19:01+00:00,190.9164,13.83,12.65,47.84626,-54.09684
2021-10-07 04:29:01+00:00,185.6248,13.84,12.65,47.84626,-54.09684
2021-10-07 04:39:01+00:00,180.3631,13.8,12.65,47.84626,-54.09684
2021-10-07 04:49:01+00:00,174.7648,13.78,12.65,47.84626,-54.09684
2021-10-07 04:59:01+00:00,172.5898,13.71,12.65,47.84626,-54.09684
2021-10-07 05:09:01+00:00,170.8731,13.7,12.65,47.84626,-54.09684
2021-10-07 05:19:01+00:00,166.6649,13.7,12.65,47.84626,-54.09684
2021-10-07 05:29:01+00:00,164.4165,13.7,12.65,47.84626,-54.09684
2021-10-07 05:39:01+00:00,164.0765,13.66,12.65,47.84626,-54.09684
2021-10-07 05:49:01+00:00,164.0715,13.6,12.65,47.84626,-54.09684
2021-10-07 05:59:01+00:00,165.5365,13.6,12.65,47.84626,-54.09684
2021-10-07 06:09:01+00:00,167.3115,13.58,12.65,47.84626,-54.09684
2021-10-07 06:19:01+00:00,170.0515,13.55,12.65,47.84626,-54.09684
2021-10-07 06:29:01+00:00,173.6148,13.56,12.65,47.84626,-54.09684
2021-10-07 06:39:01+00:00,177.5981,13.6,12.65,47.84626,-54.09684
2021-10-07 06:49:01+00:00,180.7531,13.7,12.65,47.84626,-54.09684
2021-10-07 06:59:01+00:00,184.1198,13.7,12.65,47.84626,-54.09684
2021-10-07 07:09:01+00:00,190.1748,13.7,12.65,47.84626,-54.09684
2021-10-07 07:19:01+00:00,195.5881,13.7,12.65,47.84626,-54.09684
2021-10-07 07:29:01+00:00,201.6964,13.7,12.65,47.84626,-54.09684
2021-10-07 07:39:01+00:00,209.6864,13.7,12.65,47.84626,-54.09684
2021-10-07 07:49:01+00:00,217.1898,13.68,12.65,47.84626,-54.09684
2021-10-07 07:59:01+00:00,225.5181,13.67,12.65,47.84626,-54.09684
2021-10-07 08:09:01+00:00,233.3897,13.68,12.65,47.84626,-54.09684
2021-10-07 08:19:01+00:00,239.0798,13.69,12.65,47.84626,-54.09684
2021-10-07 08:29:01+00:00,245.3631,13.7,12.65,47.84626,-54.09684
2021-10-07 08:39:01+00:00,253.9981,13.7,12.65,47.84626,-54.09684
2021-10-07 08:49:01+00:00,261.0164,13.7,12.65,47.84626,-54.09684
2021-10-07 08:59:01+00:00,264.9781,13.7,12.65,47.84626,-54.09684
2021-10-07 09:09:01+00:00,271.0597,13.7,12.65,47.84626,-54.09684
2021-10-07 09:19:01+00:00,282.2881,13.78,12.65,47.84626,-54.09684
2021-10-07 09:29:01+00:00,287.998,13.8,12.65,47.84626,-54.09684
2021-10-07 09:39:01+00:00,292.1063,13.8,12.65,47.84626,-54.09684
2021-10-07 09:49:01+00:00,302.9529,13.79,12.65,47.84626,-54.09684
2021-10-07 09:59:01+00:00,315.143,13.8,12.65,47.84626,-54.09684
2021-10-07 10:09:01+00:00,320.7747,13.9,12.65,47.84626,-54.09684
2021-10-07 10:19:01+00:00,327.3146,13.9,12.81,47.84626,-54.09684
2021-10-07 10:29:01+00:00,337.1979,13.9,12.81,47.84626,-54.09684
2021-10-07 10:39:01+00:00,345.5262,13.9,12.81,47.84626,-54.09684
2021-10-07 10:49:01+00:00,350.4747,13.9,12.81,47.84626,-54.09684
2021-10-07 10:59:01+00:00,360.608,13.9,12.81,47.84626,-54.09684
2021-10-07 11:09:01+00:00,371.5696,13.9,12.81,47.84626,-54.09684
2021-10-07 11:19:01+00:00,376.0896,13.9,14.24,47.84626,-54.09684
2021-10-07 11:29:01+00:00,377.5463,13.87,14.24,47.84626,-54.09684
2021-10-07 11:39:01+00:00,382.5813,13.8,14.24,47.84626,-54.09684
2021-10-07 11:49:01+00:00,386.3763,13.8,14.24,47.84626,-54.09684
2021-10-07 11:59:01+00:00,388.713,13.8,14.24,47.84626,-54.09684
2021-10-07 12:09:01+00:00,389.843,13.8,14.24,47.84626,-54.09684
2021-10-07 12:19:01+00:00,390.458,13.79,14.4,47.84626,-54.09684
2021-10-07 12:29:01+00:00,389.8096,13.74,14.4,47.84626,-54.09684
2021-10-07 12:39:01+00:00,390.1179,13.7,14.4,47.84626,-54.09684
2021-10-07 12:49:01+00:00,388.6379,13.72,14.4,47.84626,-54.09684
2021-10-07 12:59:01+00:00,384.7279,13.7,14.4,47.84626,-54.09684
2021-10-07 13:09:01+00:00,381.6464,13.7,14.4,47.84626,-54.09684
2021-10-07 13:19:01+00:00,377.7845,13.7,14.32,47.84626,-54.09684
2021-10-07 13:29:01+00:00,372.7146,13.7,14.32,47.84626,-54.09684
2021-10-07 13:39:01+00:00,366.5713,13.7,14.32,47.84626,-54.09684
2021-10-07 13:49:01+00:00,360.7546,13.7,14.32,47.84626,-54.09684
2021-10-07 13:59:01+00:00,354.6364,13.7,14.32,47.84626,-54.09684
2021-10-07 14:09:01+00:00,347.0229,13.7,14.32,47.84626,-54.09684
2021-10-07 14:19:01+00:00,338.7679,13.7,14.48,47.84626,-54.09684
2021-10-07 14:29:01+00:00,330.5597,13.7,14.48,47.84626,-54.09684
2021-10-07 14:39:01+00:00,322.358,13.81,14.48,47.84626,-54.09684
2021-10-07 14:49:01+00:00,309.293,13.9,14.48,47.84626,-54.09684
2021-10-07 14:59:01+00:00,296.358,13.8,14.48,47.84626,-54.09684
2021-10-07 15:09:01+00:00,287.8447,13.8,14.48,47.84626,-54.09684
2021-10-07 15:19:01+00:00,279.1797,13.8,14.48,47.84626,-54.09684
2021-10-07 15:29:01+00:00,267.7431,13.8,14.48,47.84626,-54.09684
2021-10-07 15:39:01+00:00,258.3231,13.8,14.48,47.84626,-54.09684
2021-10-07 15:49:01+00:00,250.7747,13.8,14.48,47.84626,-54.09684
2021-10-07 15:59:01+00:00,240.0981,13.8,14.48,47.84626,-54.09684
2021-10-07 16:09:01+00:00,227.8881,13.8,14.48,47.84626,-54.09684
2021-10-07 16:19:01+00:00,219.6448,13.8,14.32,47.84626,-54.09684
2021-10-07 16:29:01+00:00,214.2698,13.82,14.32,47.84626,-54.09684
2021-10-07 16:39:01+00:00,205.1131,13.85,14.32,47.84626,-54.09684
2021-10-07 16:49:01+00:00,195.5931,13.86,14.32,47.84626,-54.09684
2021-10-07 16:59:01+00:00,190.4148,13.89,14.32,47.84626,-54.09684
2021-10-07 17:09:01+00:00,185.7115,13.9,14.32,47.84626,-54.09684
2021-10-07 17:19:01+00:00,180.8998,13.9,14.24,47.84626,-54.09684
2021-10-07 17:29:01+00:00,177.5099,13.93,14.24,47.84626,-54.09684
2021-10-07 17:39:01+00:00,174.8948,13.96,14.24,47.84626,-54.09684
2021-10-07 17:49:01+00:00,172.9348,13.97,14.24,47.84626,-54.09684
2021-10-07 17:59:01+00:00,171.5465,13.99,14.24,47.84626,-54.09684
2021-10-07 18:09:01+00:00,169.6048,14.0,14.24,47.84626,-54.09684
2021-10-07 18:19:00+00:00,168.1665,14.0,14.0,47.84626,-54.09684
2021-10-07 18:29:00+00:00,169.8332,14.0,14.0,47.84626,-54.09684
2021-10-07 18:39:00+00:00,172.8515,14.0,14.0,47.84626,-54.09684
2021-10-07 18:49:00+00:00,175.0498,14.0,14.0,47.84626,-54.09684
2021-10-07 18:59:00+00:00,177.9931,14.0,14.0,47.84626,-54.09684
2021-10-07 19:09:00+00:00,182.0015,14.0,14.0,47.84626,-54.09684
2021-10-07 19:19:01+00:00,186.1598,14.0,13.76,47.84626,-54.09684
2021-10-07 19:29:01+00:00,191.6848,14.0,13.76,47.84626,-54.09684
2021-10-07 19:39:01+00:00,195.9031,14.0,13.76,47.84626,-54.09684
2021-10-07 19:49:01+00:00,200.1898,14.0,13.76,47.84626,-54.09684
2021-10-07 19:59:01+00:00,207.0548,14.0,13.76,47.84626,-54.09684
2021-10-07 20:09:01+00:00,211.5565,14.0,13.76,47.84626,-54.09684
2021-10-07 20:19:01+00:00,215.4731,14.0,13.44,47.84626,-54.09684
2021-10-07 20:29:01+00:00,221.7448,14.0,13.44,47.84626,-54.09684
2021-10-07 20:39:01+00:00,228.4964,14.0,13.44,47.84626,-54.09684
2021-10-07 20:49:01+00:00,234.6281,14.0,13.44,47.84626,-54.09684
2021-10-07 20:59:01+00:00,240.2348,14.0,13.44,47.84626,-54.09684
2021-10-07 21:09:01+00:00,246.7964,14.0,13.44,47.84626,-54.09684
2021-10-07 21:19:01+00:00,254.9081,14.0,13.13,47.84626,-54.09684
2021-10-07 21:29:01+00:00,263.403,14.0,13.13,47.84626,-54.09684
2021-10-07 21:39:01+00:00,269.8031,13.92,13.13,47.84626,-54.09684
2021-10-07 21:49:01+00:00,275.9114,13.9,13.13,47.84626,-54.09684
2021-10-07 21:59:01+00:00,284.0714,13.91,13.13,47.84626,-54.09684
2021-10-07 22:09:01+00:00,293.6063,13.9,13.13,47.84626,-54.09684
2021-10-07 22:19:01+00:00,300.4847,13.9,12.81,47.84626,-54.09684
2021-10-07 22:29:01+00:00,307.1296,13.88,12.81,47.84626,-54.09684
2021-10-07 22:39:01+00:00,315.4497,13.88,12.81,47.84626,-54.09684
2021-10-07 22:49:01+00:00,325.3829,13.86,12.81,47.84626,-54.09684
2021-10-07 22:59:01+00:00,332.4747,13.87,12.81,47.84626,-54.09684
2021-10-07 23:09:01+00:00,341.3096,13.89,12.81,47.84626,-54.09684
2021-10-07 23:19:01+00:00,351.0229,13.89,12.73,47.84626,-54.09684
2021-10-07 23:29:01+00:00,356.5146,13.84,12.73,47.84626,-54.09684
2021-10-07 23:39:01+00:00,361.5446,13.9,12.73,47.84626,-54.09684
2021-10-07 23:49:01+00:00,371.2097,13.89,12.73,47.84626,-54.09684
2021-10-07 23:59:01+00:00,376.2762,13.85,12.73,47.84626,-54.09684
